#timestamp,LO_Frequency,Hit,StdDev 
1701651615.9,286046997.0,P
1701651635.7,286046997.3,P
1701651655.6,286046997.2,P
1701651675.4,286046997.6,Y
1701651695.2,286046998.6,P
1701651715.1,286046998.8,N
1701651716.0,286046998.8,N
1701651735.8,286047001.2,N
1701651755.6,286047000.1,N
1701651775.5,286047001.5,N
1701651795.3,286047002.1,N
1701651815.2,286046999.8,N
1701651835.9,286047000.7,N
1701651855.7,286047000.2,N
1701651875.6,286047000.1,N
1701651895.4,286047000.1,N
1701651915.2,286047000.9,N
1701651935.1,286047000.0,N
1701651936.0,286047000.0,N
1701651955.8,286047000.0,N
1701651975.7,286047000.3,N
1701651995.5,286046999.9,N
1701652015.3,286047002.0,N
1701652035.2,286047000.6,N
1701652055.0,286047001.0,N
1701652055.9,286047001.0,N
1701652075.7,286046998.7,N
1701652095.6,286047000.4,N
1701652115.4,286047002.8,N
1701652135.3,286047002.8,N
1701652155.1,286046999.9,N
1701652156.0,286046999.9,N
1701652175.8,286047011.9,Y
1701652195.7,286047002.5,P
1701652215.5,286047001.7,N
1701652235.4,286047001.5,N
1701652255.2,286047004.3,Y
1701652275.0,286046998.8,P
1701652275.9,286046998.8,N
1701652295.8,286046998.2,N
1701652315.6,286046998.6,N
1701652335.5,286047000.6,N
1701652355.3,286047002.2,N
1701652375.1,286047001.5,N
1701652395.9,286047002.5,N
1701652415.7,286047001.7,N
1701652435.5,286047002.2,N
1701652455.8,286047002.0,N
1701652475.6,286047002.2,N
1701652495.5,286047004.1,N
1701652515.3,286047001.8,N
1701652535.1,286047001.9,N
1701652555.9,286047001.5,N
1701652575.7,286047002.8,N
1701652595.6,286047004.4,N
1701652615.4,286047003.9,N
1701652635.2,286047005.2,N
1701652655.7,286047003.6,N
1701652675.6,286047004.4,N
1701652695.4,286047001.7,N
1701652715.2,286047001.4,N
1701652735.1,286047004.0,N
1701652736.0,286047004.0,N
1701652755.8,286047001.5,N
1701652775.7,286047002.0,N
1701652795.5,286047001.5,N
1701652815.3,286047003.7,N
1701652835.2,286047002.9,N
1701652855.0,286047003.6,N
1701652855.9,286047003.6,N
1701652875.8,286047002.9,N
1701652895.6,286047004.6,Y
1701652915.4,286047006.0,P
1701652935.3,286047006.0,P
1701652955.1,286047006.0,P
1701652975.8,286047005.8,Y
1701652995.7,286047000.5,P
1701653015.5,286047001.0,N
1701653035.4,286046998.1,N
1701653055.2,286046998.3,N
1701653075.0,286046998.3,N
1701653075.9,286046998.3,N
1701653095.8,286047001.2,N
1701653115.6,286046998.8,N
1701653135.4,286046996.7,N
1701653155.3,286046999.4,N
1701653175.1,286047000.8,N
1701653195.9,286047000.6,N
1701653215.7,286047001.1,N
1701653235.5,286047000.9,N
1701653255.4,286047000.8,N
1701653275.2,286046998.1,N
1701653295.0,286046999.3,N
1701653295.9,286046999.3,N
1701653315.8,286046998.4,N
1701653335.6,286046998.8,N
1701653355.5,286046998.3,N
1701653375.3,286046998.7,N
1701653395.2,286046998.7,N
1701653415.9,286047000.4,N
1701653435.7,286047000.6,N
1701653455.6,286046998.1,N
1701653475.4,286047000.6,N
1701653495.3,286047000.0,N
1701653515.1,286047000.3,N
1701653516.0,286047000.3,N
1701653535.8,286046999.9,N
1701653555.7,286046999.7,N
1701653575.5,286047000.1,N
1701653595.3,286047000.5,N
1701653615.2,286047000.4,N
1701653635.0,286047001.8,N
1701653635.9,286047001.8,N
1701653655.8,286047001.5,N
1701653675.6,286047002.2,N
1701653695.5,286047000.2,N
1701653715.3,286047001.0,N
1701653735.1,286047002.2,N
1701653755.9,286047004.4,Y
1701653775.7,286047001.8,P
1701653795.5,286047002.1,N
1701653815.4,286047002.1,N
1701653835.2,286047002.7,Y
1701653855.1,286047000.8,P
1701653856.0,286047000.8,N
1701653875.8,286047000.8,N
1701653895.6,286046998.4,Y
1701653915.5,286046998.4,P
1701653935.3,286046999.0,N
1701653955.2,286046998.5,N
1701653975.9,286046998.1,N
1701653995.7,286046998.9,N
1701654015.6,286046998.2,N
1701654035.4,286046998.6,N
1701654055.2,286047000.6,N
1701654075.1,286046998.6,N
1701654076.0,286046998.6,N
1701654095.8,286047000.5,N
1701654115.7,286047000.7,N
1701654135.5,286047001.1,N
1701654155.3,286046999.9,N
1701654175.2,286047000.0,N
1701654195.0,286047000.4,N
1701654195.9,286047000.4,N
1701654215.8,286047000.6,N
1701654235.6,286047001.2,N
1701654255.4,286047001.2,N
1701654275.3,286047002.7,N
1701654295.1,286047001.1,N
1701654315.9,286046998.5,N
1701654335.7,286046998.3,N
1701654355.5,286046998.3,N
1701654375.4,286047001.1,N
1701654395.2,286046999.8,N
1701654415.0,286046999.9,N
1701654415.9,286046999.9,N
1701654435.8,286047000.3,N
1701654455.6,286047002.8,N
1701654475.5,286046999.9,N
1701654495.3,286047002.5,N
1701654515.1,286047001.9,N
1701654535.9,286046999.8,N
1701654555.7,286047000.7,N
1701654575.6,286047001.2,N
1701654595.4,286046999.1,N
1701654615.2,286046998.9,N
1701654635.1,286046996.5,N
1701654636.0,286046996.5,N
1701654655.8,286047001.0,N
1701654675.6,286046998.1,N
1701654695.5,286046999.8,N
1701654715.3,286047004.0,N
1701654735.2,286047004.1,N
1701654755.0,286047004.2,N
1701654755.9,286047004.2,N
1701654775.7,286047003.9,N
1701654795.6,286047003.1,N
1701654815.4,286047001.6,N
1701654835.3,286047002.1,N
1701654855.1,286047001.3,N
1701654875.8,286047002.1,N
1701654895.7,286047002.5,N
1701654915.5,286047001.4,N
1701654935.4,286047001.5,N
1701654955.2,286047002.3,N
1701654975.0,286047002.0,N
1701654975.9,286047002.0,N
1701654995.8,286047002.0,N
1701655015.6,286047002.6,N
1701655035.4,286047002.4,N
1701655055.3,286047001.4,N
1701655075.1,286047002.5,N
1701655095.9,286047000.1,N
1701655115.7,286046999.9,N
1701655135.5,286047004.2,N
1701655155.4,286047001.5,N
1701655175.2,286047002.6,N
1701655195.1,286047001.4,N
1701655196.0,286047001.4,N
